Theta_e
326 330 332 333 333 334 335 334 333 334 335 334 333 333 334 334 333 333 333 332 332 331 329 326 324 323 324 327 333 334 334 332 328 329 333 334 331 328 328 328 326 326 324
325 327 327 328 329 330 331 331 331 331 331 331 331 331 331 331 330 329 327 328 328 327 325 324 322 321 322 324 326 331 335 335 333 329 330 333 334 333 329 328 328 327 326
320 323 325 325 326 327 328 328 327 327 327 325 324 323 324 323 321 322 322 319 323 324 324 324 324 322 320 322 325 326 329 334 336 334 331 329 331 333 333 330 329 329 328
316 322 322 322 323 323 324 324 323 323 321 320 319 318 317 317 317 316 320 322 323 324 323 322 320 320 320 318 324 325 325 330 332 334 335 333 330 329 331 333 331 329 329
315 316 316 316 316 315 315 315 314 312 312 313 312 311 311 314 317 321 323 323 323 323 321 318 316 316 316 316 318 320 324 325 326 330 332 333 333 331 328 330 331 331 329
311 311 310 310 310 310 310 309 308 306 306 305 303 305 312 316 318 320 320 319 316 314 312 313 314 314 313 314 315 316 319 322 324 324 325 328 332 332 333 330 330 330 329
309 309 308 306 305 305 303 303 303 304 306 304 305 311 312 316 316 319 319 317 314 312 310 310 310 310 311 313 313 315 316 317 319 321 323 323 322 325 330 331 332 331 328
305 304 303 302 304 303 303 303 303 307 307 304 304 312 317 318 316 317 317 314 312 311 311 309 309 309 308 307 309 312 313 315 317 318 320 320 321 323 325 326 327 330 330
302 302 302 303 303 304 303 303 303 306 309 306 305 310 312 313 315 314 314 313 312 310 307 308 308 308 307 305 304 305 307 307 309 313 316 317 318 320 323 324 328 328 328
302 302 303 303 303 303 303 303 303 305 308 307 308 305 306 308 310 312 310 308 308 305 306 307 307 306 305 304 303 302 302 303 303 304 305 308 311 314 318 321 323 325 328
302 303 303 303 303 303 303 303 303 303 305 305 307 306 306 307 306 305 305 307 304 303 303 303 302 302 302 302 301 301 301 300 300 302 302 303 305 306 309 316 319 319 323
302 303 302 303 302 302 302 302 302 302 302 303 302 302 303 306 304 302 302 301 301 302 301 301 301 300 299 298 298 298 297 297 298 300 300 301 302 304 306 309 312 313 315
302 302 302 302 302 302 302 301 301 300 300 299 299 299 298 298 298 298 298 299 299 299 301 301 300 298 296 294 295 295 292 291 292 295 295 296 297 300 304 305 308 310 311
303 302 302 301 301 301 300 300 299 297 296 296 295 295 294 293 293 293 293 293 295 298 299 298 296 294 292 290 291 292 291 291 292 292 292 295 296 296 298 301 304 306 309
303 301 301 300 300 299 297 296 295 294 293 293 293 292 293 291 291 291 290 290 291 293 295 295 293 291 290 288 287 290 290 290 289 290 289 292 294 295 294 296 298 303 306
301 300 300 299 298 296 295 293 293 292 292 292 292 291 291 291 291 290 289 289 288 289 290 292 290 291 290 286 285 289 288 288 288 288 287 290 291 291 290 292 296 302 304
300 299 299 297 295 293 293 293 293 290 291 290 290 289 289 290 290 290 290 289 290 289 289 289 290 289 287 285 284 287 287 287 288 286 287 288 289 289 288 286 292 294 297
298 298 296 295 294 293 292 292 291 290 290 290 290 289 289 290 289 288 288 288 288 287 287 288 288 286 285 283 284 285 287 287 287 286 285 286 286 284 283 286 286 288 294
297 296 295 292 292 291 292 292 290 289 289 289 288 288 288 288 288 287 286 286 286 287 287 287 286 285 283 282 283 284 286 287 287 286 285 285 285 286 283 281 283 284 284
295 293 291 291 291 290 290 290 289 288 287 287 287 286 286 286 286 286 286 285 285 285 285 285 285 283 282 281 282 285 285 286 287 283 284 284 284 284 282 282 282 282 282
293 291 290 290 289 290 288 288 288 287 286 286 285 284 283 283 284 284 284 285 285 284 284 283 283 281 280 281 282 283 284 283 285 282 284 285 285 284 284 280 281 281 282
291 291 291 291 288 288 287 288 287 286 285 285 284 283 282 282 282 282 283 284 283 284 284 282 281 280 280 280 281 282 283 282 279 280 284 285 285 284 283 280 280 280 281
291 292 290 289 289 286 286 287 286 285 284 284 283 282 281 282 282 281 282 282 282 283 283 281 280 279 280 280 281 281 281 282 281 279 283 280 284 283 282 280 279 280 281
292 290 290 290 286 284 285 286 285 285 285 284 283 282 283 282 281 282 281 281 281 281 281 280 279 279 279 279 281 280 281 282 281 278 280 279 282 281 281 281 280 280 280
291 290 289 289 284 283 283 284 284 284 283 283 282 282 281 280 280 281 281 281 281 281 280 280 280 278 278 279 279 280 281 282 280 277 279 279 279 282 282 281 280 279 280
288 287 287 285 283 282 281 282 282 282 282 282 281 280 280 280 279 280 280 280 280 280 280 279 279 278 278 278 279 279 279 279 278 278 278 279 278 280 280 279 279 279 279
Wind_Speed
9 11 12 14 16 17 17 15 15 14 14 12 13 11 10 11 13 12 7 9 13 18 20 21 21 22 21 19 20 21 24 25 25 26 27 27 26 27 27 26 27 26 25
9 4 6 8 11 14 15 14 15 14 15 12 14 10 13 14 13 14 16 15 15 16 19 21 20 20 21 22 21 21 22 25 27 28 29 30 30 30 29 30 30 29 29
11 11 13 14 17 16 13 12 12 12 10 7 7 8 12 9 8 12 15 9 8 10 14 16 18 20 18 20 21 21 21 24 25 30 32 32 33 34 33 33 33 32 31
10 12 13 16 13 12 12 13 13 12 11 12 12 12 11 10 8 8 2 7 9 8 12 17 17 19 19 18 19 21 22 22 24 28 32 34 35 37 37 36 34 35 33
11 13 14 11 10 10 10 11 11 9 9 11 9 8 4 2 3 2 8 9 12 14 15 17 12 14 18 16 17 19 21 23 26 28 30 32 34 39 40 40 38 39 38
12 12 11 9 9 9 9 8 8 5 6 6 4 4 3 5 5 5 3 4 6 8 7 6 11 15 17 19 18 17 17 18 22 25 31 35 35 36 39 42 41 40 39
12 11 9 9 9 8 6 6 6 5 6 2 4 2 4 6 7 5 7 7 11 10 13 13 16 17 21 20 17 17 17 18 21 24 26 27 31 37 40 39 41 46 48
11 11 9 9 8 7 6 6 6 6 3 1 2 10 7 6 3 5 3 3 5 3 5 15 14 16 16 17 21 21 20 20 23 25 26 29 30 30 30 33 36 38 42
14 12 12 10 10 8 6 5 6 9 3 1 3 5 6 5 8 8 7 5 6 9 2 7 10 15 20 29 27 24 25 24 24 26 29 29 24 24 30 32 25 30 38
15 14 12 11 10 8 7 6 6 9 7 5 1 3 5 4 5 10 5 7 11 7 6 10 12 14 16 19 27 28 33 32 32 28 23 25 28 28 26 24 25 26 25
16 15 13 11 10 8 7 6 7 8 9 7 7 6 5 5 6 7 5 7 6 5 9 13 14 17 20 22 25 28 34 33 31 27 24 24 27 26 25 28 18 16 22
18 16 14 12 11 10 8 7 7 7 8 7 5 7 7 10 7 5 6 6 7 3 15 14 14 16 20 21 21 24 27 28 29 26 25 22 21 21 24 26 26 23 16
18 17 15 14 12 10 9 7 6 5 5 5 5 3 5 6 6 6 5 7 5 3 10 12 17 19 21 22 23 24 21 16 19 22 17 15 16 17 17 20 23 26 23
17 18 17 14 11 10 10 8 6 5 3 2 4 3 4 3 4 5 6 5 3 5 6 8 15 19 23 19 21 22 15 13 17 14 12 9 13 10 11 14 18 20 23
20 19 17 15 13 11 9 8 6 4 4 3 2 3 3 2 1 3 4 3 3 4 3 6 14 20 18 18 23 17 10 13 12 9 11 10 9 6 5 8 8 12 15
21 20 17 16 14 11 10 8 5 5 5 4 3 4 3 3 3 4 3 3 4 2 2 6 10 12 20 15 18 13 10 14 12 8 9 12 11 4 8 7 6 8 8
23 20 18 16 14 12 10 8 5 6 5 4 2 2 1 4 5 2 2 3 5 5 3 5 6 16 17 16 12 12 7 15 13 4 11 15 13 7 8 16 7 4 4
22 21 19 17 14 12 10 8 8 7 6 6 4 4 8 3 2 2 2 4 1 5 6 6 8 14 15 14 7 12 6 13 18 5 7 16 19 21 18 12 15 12 9
24 22 20 19 16 13 10 10 10 10 9 9 9 9 11 10 9 3 3 5 4 4 3 5 5 13 12 8 7 6 10 15 15 12 13 11 17 21 22 20 13 14 15
24 21 19 19 15 12 11 11 11 10 11 11 9 8 7 5 6 6 5 7 6 6 5 3 3 11 10 5 7 10 12 12 11 14 7 10 7 16 18 18 17 16 16
24 23 21 18 16 14 16 15 10 10 10 8 7 6 5 4 5 3 3 5 5 8 7 2 3 8 7 7 10 12 12 13 11 12 4 5 14 13 14 20 17 16 16
25 22 18 17 17 17 18 18 13 10 7 5 5 8 8 7 5 5 5 5 5 5 6 2 2 3 8 9 8 10 11 11 13 5 3 4 4 5 13 19 21 16 17
22 19 18 18 18 16 21 19 16 16 14 11 6 5 8 7 7 6 7 7 6 7 7 6 6 8 10 10 8 7 10 8 12 12 2 6 5 4 9 17 24 18 17
24 22 20 16 15 21 23 23 21 17 19 18 16 12 9 10 9 7 7 8 10 11 10 8 9 10 13 13 9 8 8 2 7 13 3 12 4 5 11 16 19 22 15
23 21 18 16 16 23 24 22 18 14 16 16 15 13 10 11 8 8 8 8 10 11 11 9 10 11 11 13 13 9 7 7 1 15 9 14 12 9 9 10 14 21 16
24 23 20 17 16 22 23 17 12 12 12 11 11 11 12 10 9 8 9 9 9 11 10 9 10 8 9 11 11 14 15 14 14 8 16 11 15 6 4 13 14 19 19
Wind_Direction
246 233 246 248 248 240 238 241 242 240 241 246 257 253 251 241 240 247 251 278 293 284 279 279 282 282 275 268 263 260 255 252 251 252 251 253 252 249 246 245 245 244 243
214 221 223 237 247 242 238 241 246 248 252 241 257 255 256 260 266 267 265 267 276 292 292 289 284 276 278 276 273 265 262 260 254 249 250 250 251 252 251 247 245 245 243
225 200 193 203 218 234 234 237 249 252 252 254 260 258 262 276 274 263 275 287 300 282 277 281 283 284 279 276 268 265 258 257 258 253 251 249 249 250 253 251 248 246 247
219 205 217 223 232 232 230 230 238 243 231 237 245 251 246 246 257 294 36 217 231 257 271 280 286 284 282 275 271 269 265 253 254 257 255 251 250 249 249 250 252 251 250
212 210 225 235 222 232 234 230 233 239 232 241 248 254 270 289 285 187 228 259 252 250 267 284 310 306 286 281 278 277 276 267 255 253 257 259 256 252 251 251 250 248 247
212 220 228 218 210 220 228 225 223 229 235 255 267 233 194 204 191 239 217 220 294 299 309 326 313 316 308 300 302 289 283 282 278 270 259 258 259 258 257 256 251 249 250
209 207 207 198 210 216 218 206 205 189 239 261 194 166 181 221 182 204 226 256 279 315 341 342 335 310 310 309 311 302 296 295 289 283 278 272 267 262 259 259 259 257 256
205 207 207 198 201 206 202 190 177 150 266 118 142 124 148 162 144 172 299 314 351 338 335 342 326 313 315 312 296 293 291 284 278 279 278 278 273 270 268 267 264 263 259
205 206 202 194 193 204 196 182 162 166 162 96 132 164 160 152 178 194 186 219 262 300 304 270 280 296 308 313 314 309 300 301 294 277 275 277 281 277 259 262 260 261 260
201 201 198 194 191 191 185 180 169 154 153 153 227 125 176 192 166 164 186 288 295 326 296 283 291 306 309 310 308 315 311 307 306 306 307 290 283 276 280 263 265 256 249
197 195 194 193 194 191 195 189 174 165 171 170 191 159 160 215 224 222 255 257 306 24 309 294 299 297 301 303 306 309 305 313 309 308 311 311 303 303 287 270 262 274 267
194 193 192 193 194 191 192 188 179 181 174 183 189 191 185 181 240 234 256 286 296 312 302 305 311 314 314 316 318 312 302 303 304 311 313 312 311 306 293 283 271 274 277
193 189 188 191 196 191 194 195 193 193 198 180 199 203 216 211 215 232 247 248 255 270 285 307 306 313 319 323 327 324 320 337 321 314 317 325 321 306 294 288 276 272 281
199 188 189 193 192 188 191 197 198 193 195 192 182 212 257 249 243 234 233 244 218 187 280 315 319 319 322 327 325 333 329 320 326 323 315 305 302 307 301 283 284 273 266
204 193 190 190 188 189 185 199 199 197 194 214 203 172 270 298 314 254 266 270 215 174 182 337 340 340 337 339 326 341 336 313 328 328 325 313 295 298 349 274 273 275 273
198 190 189 189 186 186 184 186 187 193 203 197 218 189 218 148 315 319 359 19 10 357 214 299 351 313 317 324 326 348 359 323 329 314 327 331 324 346 59 352 291 260 286
197 187 189 187 183 178 175 188 185 192 197 182 200 183 149 162 188 200 66 38 27 342 354 342 349 306 322 336 342 358 359 332 348 324 347 353 345 16 51 31 18 3 66
192 190 185 184 181 178 176 178 182 177 171 157 178 174 146 167 169 171 120 81 27 31 5 22 322 313 327 347 21 358 342 347 2 18 20 15 22 26 13 5 7 28 31
191 191 185 180 176 174 186 195 194 184 179 181 196 195 185 184 179 169 160 170 156 131 33 59 314 305 314 355 36 16 357 355 5 22 29 31 20 22 13 14 24 36 43
189 186 180 178 174 171 183 194 190 188 184 201 208 209 205 195 187 174 187 146 124 126 105 107 283 289 315 30 64 69 3 342 350 5 19 12 10 0 12 12 24 40 47
187 183 182 175 167 181 178 173 183 183 183 204 196 176 162 157 160 168 127 143 143 132 126 189 229 283 354 38 70 74 24 357 352 350 340 75 77 10 5 20 36 46 47
189 185 179 178 167 187 180 170 174 170 168 202 183 158 149 129 127 121 116 117 114 93 108 91 312 3 22 50 82 81 59 7 25 360 326 122 130 61 3 19 32 42 42
190 189 180 184 194 188 174 164 171 164 161 171 193 171 148 153 135 130 109 100 98 86 86 92 76 45 36 43 61 92 79 354 19 18 345 16 196 127 35 21 27 35 36
194 186 189 191 184 174 171 176 184 187 189 189 191 192 183 166 160 141 122 115 104 95 89 80 66 54 47 42 38 70 95 5 11 23 75 41 99 130 57 13 24 27 35
187 182 187 193 178 176 175 185 197 194 189 189 192 185 171 166 165 143 135 125 113 104 96 84 68 53 46 48 50 59 90 167 24 32 37 47 50 109 78 6 21 21 30
179 179 188 196 178 179 177 179 189 193 185 182 172 167 162 161 156 152 138 125 115 105 101 91 77 56 48 53 55 57 59 59 56 42 30 41 43 81 103 27 27 14 22